TimePDT,TemperatureF,Dew PointF,Humidity,Sea Level PressureIn,VisibilityMPH,Wind Direction,Wind SpeedMPH,Gust SpeedMPH,PrecipitationIn,Events,Conditions,WindDirDegrees,DateUTC
12:53 AM,39.0,28.9,67,30.34,10.0,NW,3.5,-,N/A,,Overcast,310,2013-03-22 07:53:00
1:53 AM,36.0,28.0,73,30.34,10.0,Calm,Calm,-,N/A,,Clear,0,2013-03-22 08:53:00
2:53 AM,35.1,28.0,76,30.33,10.0,Calm,Calm,-,N/A,,Clear,0,2013-03-22 09:53:00
3:53 AM,34.0,28.0,79,30.33,10.0,West,4.6,-,N/A,,Scattered Clouds,270,2013-03-22 10:53:00
4:53 AM,30.9,27.0,85,30.33,10.0,Calm,Calm,-,N/A,,Scattered Clouds,0,2013-03-22 11:53:00
5:53 AM,32.0,26.1,79,30.33,10.0,Calm,Calm,-,N/A,,Partly Cloudy,0,2013-03-22 12:53:00
6:53 AM,32.0,26.1,79,30.33,10.0,Calm,Calm,-,N/A,,Overcast,0,2013-03-22 13:53:00
7:53 AM,33.1,27.0,78,30.34,10.0,Calm,Calm,-,N/A,,Overcast,0,2013-03-22 14:53:00
8:53 AM,34.0,28.0,79,30.35,10.0,Calm,Calm,-,N/A,,Overcast,0,2013-03-22 15:53:00
9:53 AM,39.9,28.0,63,30.35,10.0,NW,3.5,-,N/A,,Mostly Cloudy,320,2013-03-22 16:53:00
10:53 AM,42.1,27.0,55,30.35,10.0,East,3.5,-,N/A,,Overcast,80,2013-03-22 17:53:00
11:53 AM,43.0,27.0,53,30.35,10.0,NE,6.9,-,N/A,,Mostly Cloudy,40,2013-03-22 18:53:00
12:53 PM,46.4,26.6,46,30.32,10.0,Calm,Calm,-,N/A,,Mostly Cloudy,0,2013-03-22 19:53:00
1:53 PM,45.0,25.0,46,30.32,10.0,ENE,5.8,-,N/A,,Mostly Cloudy,70,2013-03-22 20:53:00
2:53 PM,48.0,23.0,37,30.31,10.0,North,4.6,-,0.01,,Scattered Clouds,10,2013-03-22 21:53:00
3:53 PM,50.0,21.0,32,30.30,10.0,NW,9.2,16.1,N/A,,Mostly Cloudy,310,2013-03-22 22:53:00
4:53 PM,48.9,21.9,35,30.31,10.0,NNW,11.5,-,N/A,,Mostly Cloudy,330,2013-03-22 23:53:00
5:53 PM,48.9,19.9,32,30.30,10.0,NNW,11.5,-,N/A,,Scattered Clouds,330,2013-03-23 00:53:00
6:53 PM,46.0,23.0,40,30.30,10.0,North,9.2,-,N/A,,Mostly Cloudy,10,2013-03-23 01:53:00
7:53 PM,42.1,24.1,49,30.32,10.0,North,5.8,-,N/A,,Clear,350,2013-03-23 02:53:00
8:53 PM,39.0,26.1,60,30.33,10.0,Calm,Calm,-,N/A,,Clear,0,2013-03-23 03:53:00
9:53 PM,39.0,26.1,60,30.33,10.0,Calm,Calm,-,N/A,,Clear,0,2013-03-23 04:53:00
10:53 PM,37.0,24.1,59,30.35,10.0,Calm,Calm,-,N/A,,Clear,0,2013-03-23 05:53:00
11:53 PM,35.6,24.8,65,30.33,10.0,SW,3.5,-,N/A,,Clear,220,2013-03-23 06:53:00